This is the latest recevied weather packets stored in our database for station/object EW1917. If no packets are shown the sender has not sent any weather packets the latest 10 day(s).
| Time | Temp. | Humidity | Pressure | Rain* | Wind** | Luminosity | Snow |
|---|---|---|---|---|---|---|---|
| 1778279571 | 11.67° C | 86% | 1015.5 hPa | 0 mm | - | 0 W/m² | - |
| 1778278671 | 12.22° C | 84% | 1015.5 hPa | 0 mm | - | 0 W/m² | - |
| 1778276874 | 12.78° C | 84% | 1015.2 hPa | 0 mm | - | 0 W/m² | - |
| 1778276572 | 12.78° C | 83% | 1015.3 hPa | 0 mm | - | 0 W/m² | - |
| 1778275071 | 13.33° C | 81% | 1015.2 hPa | 0 mm | - | 0 W/m² | - |
| 1778274474 | 13.89° C | 80% | 1015.1 hPa | 0 mm | - | 0 W/m² | - |
| 1778273871 | 13.89° C | 79% | 1015.1 hPa | 0 mm | - | 0 W/m² | - |
| 1778272971 | 13.89° C | 78% | 1015.1 hPa | 0 mm | - | 0 W/m² | - |
| 1778271774 | 15° C | 74% | 1015.1 hPa | 0 mm | - | 0 W/m² | - |
| 1778269071 | 16.67° C | 67% | 1014.7 hPa | 0 mm | - | 0 W/m² | - |
| 1778268177 | 16.67° C | 66% | 1014.3 hPa | 0 mm | - | 0 W/m² | - |
| 1778264874 | 17.22° C | 69% | 1013.4 hPa | 0 mm | - | 7 W/m² | - |
| 1778264573 | 17.78° C | 69% | 1013.3 hPa | 0 mm | - | 12 W/m² | - |
| 1778263071 | 17.78° C | 70% | 1013 hPa | 0 mm | - | 58 W/m² | - |
| 1778262771 | 17.78° C | 70% | 1013 hPa | 0 mm | - | 63 W/m² | - |
| 1778261271 | 18.33° C | 70% | 1012.8 hPa | 0 mm | - | 76 W/m² | - |
| 1778260377 | 18.33° C | 69% | 1012.7 hPa | 0 mm | - | 74 W/m² | - |
| 1778260071 | 18.33° C | 69% | 1012.7 hPa | 0 mm | - | 79 W/m² | - |
| 1778259171 | 18.33° C | 69% | 1012.4 hPa | 0 mm | - | 109 W/m² | - |
| 1778257975 | 18.89° C | 68% | 1012.3 hPa | 0 mm | - | 151 W/m² | - |
| 1778255574 | 18.89° C | 67% | 1012.1 hPa | 0 mm | - | 186 W/m² | - |
| 1778254374 | 18.89° C | 66% | 1012 hPa | 0 mm | - | 250 W/m² | - |
| 1778254071 | 19.44° C | 69% | 1012.1 hPa | 0 mm | - | 311 W/m² | - |
| 1778253471 | 18.89° C | 68% | 1012.1 hPa | 0 mm | - | 301 W/m² | - |
| 1778253171 | 18.89° C | 67% | 1012.1 hPa | 0 mm | - | 304 W/m² | - |
* Rain latest hour (hover to see other rain measurements)
** Current wind speed in m/s (hover to see current wind gust speed)